Tracking 28081 objects as of 26-Sep-2023
HD Live streaming from Space Station
objects crossing your sky now

STARLINK-4631

Track STARLINK-4631 now!
10-day predictions
STARLINK-4631 is classified as:


NORAD ID: 53786
Int'l Code: 2022-111P
Perigee: 546.1 km
Apogee: 547.6 km
Inclination: 53.2 °
Period: 95.4 minutes
Semi major axis: 6917 km
RCS: Unknown
Launch date: September 11, 2022
Source: United States (US)
Launch site: AIR FORCE EASTERN TEST RANGE (AFETR)
Your satellite tracking list
Your tracking list is empty




NASA's NSSDC Master Catalog

Two Line Element Set (TLE):
1 53786U 22111P   23268.54218284  .00002290  00000-0  16186-3 0  9999
2 53786  53.2175 326.8452 0001043  73.5993 286.5114 15.08852485 58554
Source of the keplerian elements: AFSPC